^^
Datos históricos de la estación: Murcia-Puente Tocinos
Diario Informe para Febrero 3, 2019 Unidades:  Métrico    Inglés   Ambas
Diario Semanal Mensual Anual Configurable
  Máximo: Mínimo: Media:
Temperatura: 13.4 °C 8.6 °C 10.7 °C
Punto de rocio: -3.5 °C -7.0 °C -4.9 °C
Humedad: 40% 26% 34%
Velocidad viento: 36.2km/h 5.0km/h 21.6km/h
Racha viento: 62.9km/h - -
Viento- - WNW
Presión: 1025.0 hPa 1014.7 hPa -
Precipitación: 0.0 mm    
Historical Graphs
 
 
Tabla de datos para Febrero 3, 2019
Hora Temperatura Punto de rocio Presión Viento Velocidad viento Racha viento Humedad Intensidad lluvia(por hora) Nubes
00:00 10.1 °C -4.7 °C 1014.7 hPa WNW 22.5 km/h 40.2 km/h 35% 0.0 mm CLR
00:05 10.1 °C -4.7 °C 1014.8 hPa WNW 22.0 km/h 32.8 km/h 35% 0.0 mm CLR
00:10 10.1 °C -4.7 °C 1014.8 hPa WNW 23.7 km/h 38.9 km/h 35% 0.0 mm CLR
00:15 10.1 °C -4.3 °C 1014.8 hPa West 23.7 km/h 27.8 km/h 36% 0.0 mm CLR
00:20 10.1 °C -3.9 °C 1014.9 hPa West 23.3 km/h 29.6 km/h 37% 0.0 mm CLR
00:25 10.1 °C -4.3 °C 1014.9 hPa West 23.3 km/h 24.1 km/h 36% 0.0 mm CLR
00:30 10.0 °C -4.4 °C 1014.9 hPa West 18.3 km/h 37.0 km/h 36% 0.0 mm CLR
00:35 10.0 °C -4.1 °C 1015.1 hPa WNW 18.3 km/h 25.9 km/h 37% 0.0 mm CLR
00:40 9.9 °C -4.1 °C 1015.1 hPa West 17.2 km/h 16.7 km/h 37% 0.0 mm CLR
00:45 9.9 °C -4.1 °C 1015.1 hPa WNW 17.2 km/h 29.6 km/h 37% 0.0 mm CLR
00:50 9.9 °C -4.1 °C 1015.2 hPa West 14.0 km/h 30.6 km/h 37% 0.0 mm CLR
00:55 9.9 °C -4.1 °C 1015.2 hPa WSW 14.0 km/h 29.6 km/h 37% 0.0 mm CLR
01:00 9.8 °C -3.9 °C 1015.2 hPa West 16.1 km/h 30.6 km/h 38% 0.0 mm CLR
01:04 9.8 °C -3.9 °C 1015.5 hPa West 17.2 km/h 24.1 km/h 38% 0.0 mm CLR
01:09 9.8 °C -3.9 °C 1015.5 hPa West 15.6 km/h 25.6 km/h 38% 0.0 mm CLR
01:14 9.9 °C -4.1 °C 1015.5 hPa WNW 15.6 km/h 31.5 km/h 37% 0.0 mm CLR
01:19 9.9 °C -4.1 °C 1015.7 hPa WNW 19.0 km/h 35.2 km/h 37% 0.0 mm CLR
01:24 9.9 °C -4.1 °C 1015.7 hPa NW 19.0 km/h 33.3 km/h 37% 0.0 mm CLR
01:29 9.9 °C -4.1 °C 1015.7 hPa NW 20.9 km/h 25.9 km/h 37% 0.0 mm CLR
01:34 9.9 °C -4.1 °C 1015.9 hPa WNW 20.9 km/h 31.5 km/h 37% 0.0 mm CLR
01:39 9.8 °C -4.2 °C 1015.9 hPa WNW 20.1 km/h 29.6 km/h 37% 0.0 mm CLR
01:44 9.8 °C -4.2 °C 1015.9 hPa West 20.1 km/h 14.8 km/h 37% 0.0 mm CLR
01:49 9.7 °C -4.3 °C 1016.1 hPa West 14.0 km/h 20.4 km/h 37% 0.0 mm CLR
01:54 9.7 °C -4.3 °C 1016.1 hPa SW 14.0 km/h 13.0 km/h 37% 0.0 mm CLR
01:59 9.7 °C -3.9 °C 1016.1 hPa West 10.3 km/h 18.5 km/h 38% 0.0 mm CLR
02:04 9.6 °C -4.1 °C 1016.1 hPa West 10.3 km/h 24.1 km/h 38% 0.0 mm CLR
02:09 9.6 °C -4.1 °C 1016.1 hPa WNW 11.9 km/h 24.1 km/h 38% 0.0 mm CLR
02:14 9.7 °C -3.9 °C 1016.1 hPa WNW 11.9 km/h 22.2 km/h 38% 0.0 mm CLR
02:19 9.7 °C -3.9 °C 1016.3 hPa WNW 15.6 km/h 14.8 km/h 38% 0.0 mm CLR
02:24 9.6 °C -3.7 °C 1016.3 hPa West 15.6 km/h 25.9 km/h 39% 0.0 mm CLR
02:29 9.7 °C -3.6 °C 1016.3 hPa WNW 10.3 km/h 24.1 km/h 39% 0.0 mm CLR
02:34 9.8 °C -3.9 °C 1016.4 hPa WNW 10.3 km/h 33.3 km/h 38% 0.0 mm CLR
02:39 9.8 °C -3.5 °C 1016.4 hPa West 16.4 km/h 25.6 km/h 39% 0.0 mm CLR
02:44 9.7 °C -3.6 °C 1016.4 hPa NNW 16.4 km/h 22.2 km/h 39% 0.0 mm CLR
02:49 9.7 °C -3.6 °C 1016.5 hPa West 16.4 km/h 22.5 km/h 39% 0.0 mm CLR
02:54 9.7 °C -3.6 °C 1016.5 hPa WSW 16.4 km/h 27.8 km/h 39% 0.0 mm CLR
02:59 9.7 °C -3.6 °C 1016.5 hPa WNW 18.3 km/h 25.9 km/h 39% 0.0 mm CLR
03:04 9.7 °C -3.6 °C 1016.4 hPa WNW 18.3 km/h 18.5 km/h 39% 0.0 mm CLR
03:09 9.7 °C -3.6 °C 1016.4 hPa West 19.0 km/h 38.9 km/h 39% 0.0 mm CLR
03:14 9.7 °C -3.6 °C 1016.4 hPa WNW 19.0 km/h 44.4 km/h 39% 0.0 mm CLR
03:19 9.7 °C -3.6 °C 1016.8 hPa NW 24.5 km/h 33.5 km/h 39% 0.0 mm CLR
03:24 9.6 °C -3.7 °C 1016.8 hPa NNW 24.5 km/h 22.2 km/h 39% 0.0 mm CLR
03:29 9.6 °C -3.7 °C 1016.8 hPa WNW 18.3 km/h 27.8 km/h 39% 0.0 mm CLR
03:34 9.6 °C -3.7 °C 1016.9 hPa West 18.3 km/h 22.2 km/h 39% 0.0 mm CLR
03:39 9.6 °C -3.7 °C 1016.9 hPa West 16.1 km/h 37.0 km/h 39% 0.0 mm CLR
03:44 9.6 °C -3.7 °C 1016.9 hPa West 16.1 km/h 35.9 km/h 39% 0.0 mm CLR
03:49 9.6 °C -3.7 °C 1017.0 hPa WNW 20.1 km/h 29.6 km/h 39% 0.0 mm CLR
03:54 9.5 °C -3.8 °C 1017.0 hPa West 20.1 km/h 29.6 km/h 39% 0.0 mm CLR
03:59 9.4 °C -3.9 °C 1017.0 hPa NW 17.2 km/h 29.6 km/h 39% 0.0 mm CLR
04:04 9.4 °C -3.9 °C 1016.9 hPa WNW 17.2 km/h 31.5 km/h 39% 0.0 mm CLR
04:09 9.4 °C -3.9 °C 1016.9 hPa West 15.6 km/h 25.9 km/h 39% 0.0 mm CLR
04:14 9.4 °C -3.9 °C 1016.9 hPa North 15.6 km/h 33.3 km/h 39% 0.0 mm CLR
04:19 9.5 °C -3.8 °C 1017.0 hPa West 19.8 km/h 33.3 km/h 39% 0.0 mm CLR
04:24 9.5 °C -3.8 °C 1017.0 hPa WNW 19.8 km/h 33.3 km/h 39% 0.0 mm CLR
04:29 9.6 °C -3.7 °C 1017.0 hPa West 23.3 km/h 38.9 km/h 39% 0.0 mm CLR
04:34 9.6 °C -3.7 °C 1016.9 hPa NW 23.3 km/h 44.4 km/h 39% 0.0 mm CLR
04:39 9.5 °C -3.8 °C 1016.9 hPa NW 26.2 km/h 35.2 km/h 39% 0.0 mm CLR
04:44 9.4 °C -3.6 °C 1016.9 hPa WNW 26.2 km/h 37.8 km/h 40% 0.0 mm CLR
04:49 9.4 °C -3.6 °C 1017.0 hPa West 25.1 km/h 37.0 km/h 40% 0.0 mm CLR
04:54 9.4 °C -3.9 °C 1017.0 hPa WNW 25.1 km/h 33.3 km/h 39% 0.0 mm CLR
04:59 9.4 °C -3.9 °C 1017.0 hPa West 20.9 km/h 29.6 km/h 39% 0.0 mm CLR
05:04 9.5 °C -3.8 °C 1017.3 hPa WNW 20.9 km/h 29.6 km/h 39% 0.0 mm CLR
05:09 9.4 °C -3.9 °C 1017.3 hPa WNW 25.1 km/h 30.6 km/h 39% 0.0 mm CLR
05:14 9.4 °C -3.9 °C 1017.3 hPa WNW 25.1 km/h 37.0 km/h 39% 0.0 mm CLR
05:19 9.4 °C -3.9 °C 1017.4 hPa NW 25.6 km/h 40.7 km/h 39% 0.0 mm CLR
05:24 9.4 °C -3.9 °C 1017.4 hPa West 25.6 km/h 33.3 km/h 39% 0.0 mm CLR
05:29 9.4 °C -3.9 °C 1017.4 hPa WNW 25.6 km/h 33.3 km/h 39% 0.0 mm CLR
05:34 9.3 °C -3.9 °C 1017.7 hPa NNW 25.6 km/h 31.5 km/h 39% 0.0 mm CLR
05:39 9.2 °C -3.7 °C 1017.7 hPa WNW 22.0 km/h 37.0 km/h 40% 0.0 mm CLR
05:44 9.2 °C -3.7 °C 1017.7 hPa WNW 22.0 km/h 46.3 km/h 40% 0.0 mm CLR
05:49 9.1 °C -3.8 °C 1017.8 hPa WNW 22.5 km/h 40.7 km/h 40% 0.0 mm CLR
05:54 9.1 °C -3.8 °C 1017.8 hPa NW 22.5 km/h 27.8 km/h 40% 0.0 mm CLR
05:59 9.0 °C -3.9 °C 1017.8 hPa WNW 19.0 km/h 51.8 km/h 40% 0.0 mm CLR
06:04 9.1 °C -3.8 °C 1017.6 hPa NW 19.0 km/h 44.9 km/h 40% 0.0 mm CLR
06:09 9.1 °C -3.8 °C 1017.6 hPa WNW 23.3 km/h 40.7 km/h 40% 0.0 mm CLR
06:14 9.1 °C -4.2 °C 1017.6 hPa West 23.3 km/h 50.0 km/h 39% 0.0 mm CLR
06:19 9.1 °C -4.2 °C 1017.6 hPa West 25.6 km/h 42.6 km/h 39% 0.0 mm CLR
06:24 9.0 °C -4.2 °C 1017.6 hPa West 25.6 km/h 44.4 km/h 39% 0.0 mm CLR
06:29 8.9 °C -4.3 °C 1017.6 hPa West 21.7 km/h 29.6 km/h 39% 0.0 mm CLR
06:34 8.9 °C -4.3 °C 1017.6 hPa WSW 21.7 km/h 38.9 km/h 39% 0.0 mm CLR
06:39 8.9 °C -4.7 °C 1017.6 hPa WNW 22.5 km/h 44.9 km/h 38% 0.0 mm CLR
06:44 9.0 °C -4.6 °C 1017.6 hPa WNW 22.5 km/h 42.6 km/h 38% 0.0 mm CLR
06:49 8.9 °C -4.7 °C 1017.9 hPa WNW 27.0 km/h 37.0 km/h 38% 0.0 mm CLR
06:54 8.9 °C -4.7 °C 1017.9 hPa West 27.0 km/h 38.9 km/h 38% 0.0 mm CLR
06:59 8.8 °C -4.8 °C 1017.9 hPa NW 20.9 km/h 22.5 km/h 38% 0.0 mm CLR
07:04 8.8 °C -4.8 °C 1017.8 hPa WNW 20.9 km/h 33.3 km/h 38% 0.0 mm CLR
07:09 8.8 °C -4.8 °C 1017.8 hPa West 18.3 km/h 33.3 km/h 38% 0.0 mm CLR
07:14 8.8 °C -4.8 °C 1017.8 hPa WSW 18.3 km/h 32.3 km/h 38% 0.0 mm CLR
07:19 8.9 °C -4.7 °C 1018.1 hPa WNW 19.0 km/h 33.3 km/h 38% 0.0 mm CLR
07:24 8.8 °C -4.8 °C 1018.1 hPa NW 19.0 km/h 24.1 km/h 38% 0.0 mm CLR
07:29 8.8 °C -4.8 °C 1018.1 hPa WNW 19.8 km/h 25.9 km/h 38% 0.0 mm CLR
07:34 8.8 °C -4.8 °C 1018.4 hPa NW 19.8 km/h 31.5 km/h 38% 0.0 mm CLR
07:39 8.7 °C -4.5 °C 1018.4 hPa West 22.5 km/h 23.7 km/h 39% 0.0 mm CLR
07:44 8.7 °C -4.5 °C 1018.4 hPa SW 22.5 km/h 29.6 km/h 39% 0.0 mm CLR
07:49 8.7 °C -4.5 °C 1018.4 hPa WSW 22.0 km/h 24.1 km/h 39% 0.0 mm CLR
07:54 8.6 °C -4.6 °C 1018.4 hPa West 22.0 km/h 20.4 km/h 39% 0.0 mm CLR
07:59 8.7 °C -4.5 °C 1018.4 hPa WSW 15.6 km/h 16.7 km/h 39% 0.0 mm CLR
08:04 8.6 °C -4.6 °C 1019.0 hPa NW 15.6 km/h 22.2 km/h 39% 0.0 mm CLR
08:09 8.6 °C -4.9 °C 1019.0 hPa West 11.9 km/h 24.1 km/h 38% 0.0 mm CLR
08:14 8.7 °C -4.8 °C 1019.0 hPa WNW 11.9 km/h 29.6 km/h 38% 0.0 mm CLR
08:19 8.6 °C -4.9 °C 1019.4 hPa West 18.0 km/h 25.9 km/h 38% 0.0 mm CLR
08:24 8.6 °C -4.9 °C 1019.4 hPa WNW 18.0 km/h 24.1 km/h 38% 0.0 mm CLR
08:29 8.6 °C -4.9 °C 1019.4 hPa West 16.4 km/h 42.6 km/h 38% 0.0 mm CLR
08:34 8.6 °C -4.9 °C 1019.6 hPa West 16.4 km/h 30.9 km/h 38% 0.0 mm CLR
08:39 8.6 °C -4.9 °C 1019.6 hPa WNW 21.7 km/h 24.1 km/h 38% 0.0 mm CLR
08:44 8.6 °C -4.9 °C 1019.6 hPa NW 21.7 km/h 29.6 km/h 38% 0.0 mm CLR
08:49 8.7 °C -4.8 °C 1020.0 hPa NNW 13.0 km/h 24.1 km/h 38% 0.0 mm CLR
08:54 8.7 °C -4.8 °C 1020.0 hPa WNW 13.0 km/h 11.1 km/h 38% 0.0 mm CLR
08:59 8.7 °C -4.8 °C 1020.0 hPa WNW 10.0 km/h 29.6 km/h 38% 0.0 mm CLR
09:04 8.8 °C -4.8 °C 1020.2 hPa WSW 10.0 km/h 22.2 km/h 38% 0.0 mm CLR
09:09 8.9 °C -4.7 °C 1020.2 hPa West 17.2 km/h 31.7 km/h 38% 0.0 mm CLR
09:14 8.9 °C -4.7 °C 1020.2 hPa West 17.2 km/h 20.4 km/h 38% 0.0 mm CLR
09:19 8.9 °C -4.7 °C 1020.5 hPa West 15.6 km/h 30.9 km/h 38% 0.0 mm CLR
09:24 9.0 °C -4.9 °C 1020.5 hPa NW 15.6 km/h 37.0 km/h 37% 0.0 mm CLR
09:29 9.0 °C -4.6 °C 1020.5 hPa WNW 18.3 km/h 37.0 km/h 38% 0.0 mm CLR
09:34 9.1 °C -4.5 °C 1020.5 hPa West 18.3 km/h 29.6 km/h 38% 0.0 mm CLR
09:39 9.1 °C -4.5 °C 1020.5 hPa NW 19.0 km/h 22.5 km/h 38% 0.0 mm CLR
09:44 9.2 °C -4.8 °C 1020.5 hPa WNW 19.0 km/h 27.8 km/h 37% 0.0 mm CLR
09:49 9.2 °C -4.8 °C 1020.6 hPa West 18.3 km/h 27.0 km/h 37% 0.0 mm CLR
09:54 9.2 °C -4.8 °C 1020.6 hPa WNW 18.3 km/h 37.8 km/h 37% 0.0 mm CLR
09:59 9.2 °C -5.1 °C 1020.6 hPa NW 20.9 km/h 33.3 km/h 36% 0.0 mm CLR
10:04 9.3 °C -5.1 °C 1020.7 hPa West 20.9 km/h 31.5 km/h 36% 0.0 mm CLR
10:09 9.4 °C -4.9 °C 1020.7 hPa West 20.9 km/h 38.9 km/h 36% 0.0 mm CLR
10:14 9.5 °C -4.8 °C 1020.7 hPa WNW 20.9 km/h 40.7 km/h 36% 0.0 mm CLR
10:19 9.4 °C -4.9 °C 1020.7 hPa WNW 25.6 km/h 38.9 km/h 36% 0.0 mm CLR
10:24 9.5 °C -5.2 °C 1020.7 hPa West 25.6 km/h 50.0 km/h 35% 0.0 mm CLR
10:29 9.5 °C -5.2 °C 1020.7 hPa West 28.2 km/h 50.0 km/h 35% 0.0 mm CLR
10:34 9.6 °C -5.1 °C 1020.5 hPa West 28.2 km/h 46.3 km/h 35% 0.0 mm CLR
10:39 9.7 °C -5.4 °C 1020.5 hPa WNW 34.6 km/h 55.5 km/h 34% 0.0 mm CLR
10:44 9.8 °C -5.7 °C 1020.5 hPa West 34.6 km/h 51.8 km/h 33% 0.0 mm CLR
10:49 9.8 °C -5.7 °C 1020.8 hPa NNW 36.2 km/h 48.1 km/h 33% 0.0 mm CLR
10:54 10.0 °C -5.9 °C 1020.8 hPa WNW 36.2 km/h 47.8 km/h 32% 0.0 mm CLR
10:59 9.9 °C -6.4 °C 1020.8 hPa NNW 32.3 km/h 55.5 km/h 31% 0.0 mm CLR
11:04 10.1 °C -6.7 °C 1021.1 hPa WNW 32.3 km/h 57.1 km/h 30% 0.0 mm CLR
11:09 10.2 °C -6.6 °C 1021.1 hPa NW 36.2 km/h 35.2 km/h 30% 0.0 mm CLR
11:14 10.3 °C -7.0 °C 1021.1 hPa West 36.2 km/h 40.7 km/h 29% 0.0 mm CLR
11:19 10.4 °C -6.9 °C 1021.2 hPa NW 28.2 km/h 44.4 km/h 29% 0.0 mm CLR
11:24 10.6 °C -6.7 °C 1021.2 hPa WNW 28.2 km/h 41.2 km/h 29% 0.0 mm CLR
11:29 10.5 °C -6.8 °C 1021.2 hPa NW 27.0 km/h 51.8 km/h 29% 0.0 mm CLR
11:34 10.5 °C -6.8 °C 1021.2 hPa NW 27.0 km/h 44.4 km/h 29% 0.0 mm CLR
11:39 10.6 °C -6.7 °C 1021.2 hPa WNW 28.6 km/h 40.7 km/h 29% 0.0 mm CLR
11:44 10.7 °C -6.7 °C 1021.2 hPa WNW 28.6 km/h 44.4 km/h 29% 0.0 mm CLR
11:49 10.8 °C -6.6 °C 1021.1 hPa NW 26.2 km/h 59.2 km/h 29% 0.0 mm CLR
11:54 10.8 °C -6.6 °C 1021.1 hPa WNW 26.2 km/h 53.7 km/h 29% 0.0 mm CLR
11:59 10.8 °C -6.6 °C 1021.1 hPa WNW 30.9 km/h 42.6 km/h 29% 0.0 mm CLR
12:04 10.9 °C -6.4 °C 1021.1 hPa NNW 30.9 km/h 44.2 km/h 29% 0.0 mm CLR
12:09 11.1 °C -6.3 °C 1021.1 hPa WNW 28.6 km/h 40.7 km/h 29% 0.0 mm CLR
12:14 11.1 °C -6.3 °C 1021.1 hPa North 28.6 km/h 37.0 km/h 29% 0.0 mm CLR
12:19 11.2 °C -6.7 °C 1021.2 hPa NW 23.7 km/h 42.0 km/h 28% 0.0 mm CLR
12:24 11.1 °C -6.8 °C 1021.2 hPa WNW 23.7 km/h 38.9 km/h 28% 0.0 mm CLR
12:29 11.2 °C -6.2 °C 1021.2 hPa NW 32.8 km/h 48.1 km/h 29% 0.0 mm CLR
12:35 11.2 °C -6.7 °C 1021.0 hPa West 32.8 km/h 57.4 km/h 28% 0.0 mm CLR
12:39 11.1 °C -6.8 °C 1021.0 hPa WNW 34.3 km/h 53.7 km/h 28% 0.0 mm CLR
12:44 11.2 °C -6.2 °C 1021.0 hPa NNW 34.3 km/h 46.3 km/h 29% 0.0 mm CLR
12:49 11.3 °C -6.1 °C 1020.8 hPa WNW 36.2 km/h 44.4 km/h 29% 0.0 mm CLR
12:54 11.4 °C -6.5 °C 1020.8 hPa WNW 36.2 km/h 57.9 km/h 28% 0.0 mm CLR
12:59 11.4 °C -6.1 °C 1020.8 hPa WNW 35.2 km/h 44.4 km/h 29% 0.0 mm CLR
13:04 11.6 °C -6.3 °C 1020.9 hPa NW 35.2 km/h 52.1 km/h 28% 0.0 mm CLR
13:09 11.5 °C -5.9 °C 1020.9 hPa West 29.8 km/h 55.5 km/h 29% 0.0 mm CLR
13:14 11.7 °C -5.8 °C 1020.9 hPa West 29.8 km/h 33.3 km/h 29% 0.0 mm CLR
13:19 11.7 °C -5.8 °C 1021.0 hPa WNW 27.0 km/h 50.0 km/h 29% 0.0 mm FEW
13:24 11.7 °C -5.8 °C 1021.0 hPa WNW 27.0 km/h 44.2 km/h 29% 0.0 mm FEW
13:29 11.7 °C -5.8 °C 1021.0 hPa WNW 28.6 km/h 35.2 km/h 29% 0.0 mm FEW
13:34 11.9 °C -5.6 °C 1021.1 hPa WNW 28.6 km/h 51.8 km/h 29% 0.0 mm FEW
13:39 11.6 °C -5.9 °C 1021.1 hPa WNW 28.2 km/h 38.9 km/h 29% 0.0 mm FEW
13:44 11.7 °C -5.8 °C 1021.1 hPa WNW 28.2 km/h 40.7 km/h 29% 0.0 mm FEW
13:49 11.8 °C -5.7 °C 1021.0 hPa NNW 26.2 km/h 37.0 km/h 29% 0.0 mm FEW
13:54 11.9 °C -5.6 °C 1021.0 hPa WNW 26.2 km/h 38.9 km/h 29% 0.0 mm FEW
13:59 11.8 °C -5.7 °C 1021.0 hPa WNW 26.2 km/h 38.9 km/h 29% 0.0 mm FEW
14:04 12.0 °C -5.5 °C 1020.9 hPa WNW 26.2 km/h 40.7 km/h 29% 0.0 mm FEW
14:09 11.9 °C -5.6 °C 1020.9 hPa NW 24.5 km/h 50.0 km/h 29% 0.0 mm FEW
14:14 12.0 °C -5.5 °C 1020.9 hPa West 24.5 km/h 46.3 km/h 29% 0.0 mm FEW
14:19 12.1 °C -5.4 °C 1020.4 hPa NW 29.8 km/h 37.0 km/h 29% 0.0 mm FEW
14:24 12.4 °C -5.2 °C 1020.4 hPa WNW 29.8 km/h 40.7 km/h 29% 0.0 mm FEW
14:29 12.4 °C -5.6 °C 1020.4 hPa WSW 23.3 km/h 36.2 km/h 28% 0.0 mm FEW
14:34 12.3 °C -5.7 °C 1020.2 hPa NW 23.3 km/h 40.7 km/h 28% 0.0 mm FEW
14:39 12.4 °C -5.6 °C 1020.2 hPa WNW 28.6 km/h 40.7 km/h 28% 0.0 mm FEW
14:44 12.6 °C -5.4 °C 1020.2 hPa West 28.6 km/h 33.3 km/h 28% 0.0 mm FEW
14:49 12.6 °C -5.4 °C 1020.0 hPa NNW 25.1 km/h 33.3 km/h 28% 0.0 mm FEW
14:54 12.4 °C -5.6 °C 1020.0 hPa WNW 25.1 km/h 50.0 km/h 28% 0.0 mm FEW
14:59 12.7 °C -5.4 °C 1020.0 hPa WNW 29.8 km/h 31.5 km/h 28% 0.0 mm FEW
15:04 12.8 °C -5.8 °C 1019.8 hPa WNW 29.8 km/h 37.0 km/h 27% 0.0 mm FEW
15:09 12.9 °C -6.2 °C 1019.8 hPa NW 23.3 km/h 38.9 km/h 26% 0.0 mm FEW
15:14 13.0 °C -5.6 °C 1019.8 hPa WNW 23.3 km/h 53.7 km/h 27% 0.0 mm FEW
15:19 13.0 °C -5.6 °C 1019.8 hPa WNW 27.0 km/h 40.7 km/h 27% 0.0 mm FEW
15:24 12.9 °C -5.7 °C 1019.8 hPa WNW 27.0 km/h 38.9 km/h 27% 0.0 mm FEW
15:29 12.9 °C -5.7 °C 1019.8 hPa NW 31.7 km/h 55.5 km/h 27% 0.0 mm FEW
15:34 13.2 °C -5.4 °C 1020.0 hPa NW 31.7 km/h 42.6 km/h 27% 0.0 mm FEW
15:39 13.0 °C -5.6 °C 1020.0 hPa WNW 28.2 km/h 59.2 km/h 27% 0.0 mm FEW
15:45 13.0 °C -5.6 °C 1020.0 hPa WSW 28.2 km/h 60.0 km/h 27% 0.0 mm FEW
15:49 13.0 °C -5.6 °C 1020.1 hPa WNW 34.3 km/h 42.6 km/h 27% 0.0 mm FEW
15:54 13.2 °C -5.4 °C 1020.1 hPa NNW 34.3 km/h 42.6 km/h 27% 0.0 mm FEW
15:59 13.3 °C -5.3 °C 1020.1 hPa NNW 27.4 km/h 44.4 km/h 27% 0.0 mm FEW
16:04 13.3 °C -5.8 °C 1020.2 hPa West 27.4 km/h 50.0 km/h 26% 0.0 mm FEW
16:09 13.2 °C -5.9 °C 1020.2 hPa NW 25.6 km/h 48.1 km/h 26% 0.0 mm FEW
16:14 13.2 °C -5.4 °C 1020.2 hPa WNW 25.6 km/h 29.6 km/h 27% 0.0 mm FEW
16:19 13.1 °C -5.5 °C 1020.1 hPa West 31.7 km/h 53.7 km/h 27% 0.0 mm FEW
16:24 13.2 °C -5.4 °C 1020.1 hPa West 31.7 km/h 50.0 km/h 27% 0.0 mm FEW
16:29 13.4 °C -5.2 °C 1020.1 hPa WNW 29.8 km/h 27.8 km/h 27% 0.0 mm FEW
16:34 13.4 °C -5.7 °C 1020.2 hPa West 29.8 km/h 55.5 km/h 26% 0.0 mm FEW
16:39 13.3 °C -5.8 °C 1020.2 hPa WNW 29.8 km/h 62.1 km/h 26% 0.0 mm FEW
16:44 13.3 °C -5.8 °C 1020.2 hPa WNW 29.8 km/h 51.8 km/h 26% 0.0 mm FEW
16:50 13.3 °C -5.8 °C 1020.4 hPa WNW 35.4 km/h 53.1 km/h 26% 0.0 mm FEW
16:54 13.4 °C -5.7 °C 1020.4 hPa WNW 35.2 km/h 38.9 km/h 26% 0.0 mm FEW
16:59 13.3 °C -5.8 °C 1020.4 hPa WNW 28.2 km/h 51.8 km/h 26% 0.0 mm FEW
17:05 13.3 °C -5.8 °C 1020.3 hPa NW 28.2 km/h 50.0 km/h 26% 0.0 mm FEW
17:09 13.3 °C -5.8 °C 1020.3 hPa WNW 30.9 km/h 48.4 km/h 26% 0.0 mm FEW
17:14 13.3 °C -5.8 °C 1020.3 hPa West 30.9 km/h 62.9 km/h 26% 0.0 mm FEW
17:20 13.2 °C -5.9 °C 1020.4 hPa West 32.3 km/h 33.5 km/h 26% 0.0 mm FEW
17:24 13.3 °C -5.8 °C 1020.4 hPa West 32.3 km/h 40.7 km/h 26% 0.0 mm FEW
17:29 13.3 °C -5.8 °C 1020.4 hPa WSW 27.4 km/h 42.6 km/h 26% 0.0 mm FEW
17:34 13.2 °C -5.9 °C 1020.3 hPa WNW 27.4 km/h 44.4 km/h 26% 0.0 mm FEW
17:39 13.2 °C -5.4 °C 1020.3 hPa WNW 29.1 km/h 33.3 km/h 27% 0.0 mm FEW
17:45 13.2 °C -5.4 °C 1020.3 hPa NW 29.1 km/h 50.0 km/h 27% 0.0 mm FEW
17:49 13.2 °C -5.4 °C 1020.4 hPa West 25.6 km/h 50.0 km/h 27% 0.0 mm FEW
17:54 13.2 °C -5.4 °C 1020.4 hPa WNW 25.6 km/h 31.5 km/h 27% 0.0 mm FEW
17:59 13.1 °C -5.5 °C 1020.4 hPa West 23.3 km/h 31.7 km/h 27% 0.0 mm FEW
18:04 13.1 °C -5.5 °C 1020.5 hPa NW 23.3 km/h 44.4 km/h 27% 0.0 mm FEW
18:09 13.0 °C -5.6 °C 1020.5 hPa WNW 21.7 km/h 33.5 km/h 27% 0.0 mm FEW
18:14 12.9 °C -5.7 °C 1020.5 hPa West 21.7 km/h 46.3 km/h 27% 0.0 mm FEW
18:19 12.8 °C -5.8 °C 1020.8 hPa WNW 27.4 km/h 43.9 km/h 27% 0.0 mm FEW
18:25 12.8 °C -5.3 °C 1020.8 hPa WNW 27.4 km/h 51.5 km/h 28% 0.0 mm FEW
18:29 12.7 °C -5.4 °C 1020.8 hPa West 26.2 km/h 40.7 km/h 28% 0.0 mm FEW
18:34 12.7 °C -5.4 °C 1021.0 hPa NW 26.2 km/h 37.0 km/h 28% 0.0 mm FEW
18:39 12.6 °C -5.4 °C 1021.0 hPa West 27.0 km/h 34.6 km/h 28% 0.0 mm FEW
18:44 12.5 °C -5.6 °C 1021.0 hPa NNW 27.0 km/h 44.4 km/h 28% 0.0 mm FEW
18:49 12.5 °C -5.6 °C 1021.3 hPa WNW 23.3 km/h 37.0 km/h 28% 0.0 mm FEW
18:54 12.4 °C -5.2 °C 1021.3 hPa WNW 23.3 km/h 33.3 km/h 29% 0.0 mm FEW
18:59 12.3 °C -5.3 °C 1021.3 hPa WNW 23.7 km/h 31.7 km/h 29% 0.0 mm FEW
19:05 12.3 °C -5.3 °C 1021.5 hPa WNW 24.1 km/h 33.8 km/h 29% 0.0 mm FEW
19:10 12.2 °C -5.3 °C 1021.5 hPa WNW 20.9 km/h 33.8 km/h 29% 0.0 mm FEW
19:15 12.2 °C -5.3 °C 1021.5 hPa WNW 20.9 km/h 37.0 km/h 29% 0.0 mm FEW
19:19 12.2 °C -5.3 °C 1021.7 hPa WNW 22.5 km/h 33.3 km/h 29% 0.0 mm FEW
19:24 12.2 °C -4.9 °C 1021.7 hPa NW 22.5 km/h 25.9 km/h 30% 0.0 mm FEW
19:29 12.1 °C -5.0 °C 1021.7 hPa West 18.3 km/h 17.2 km/h 30% 0.0 mm FEW
19:34 12.0 °C -5.1 °C 1021.8 hPa WNW 18.3 km/h 31.5 km/h 30% 0.0 mm FEW
19:39 11.9 °C -5.2 °C 1021.8 hPa WNW 16.1 km/h 14.8 km/h 30% 0.0 mm FEW
19:44 11.9 °C -5.2 °C 1021.8 hPa WNW 16.1 km/h 27.8 km/h 30% 0.0 mm FEW
19:50 11.9 °C -4.7 °C 1022.3 hPa WNW 16.1 km/h 25.7 km/h 31% 0.0 mm FEW
19:54 11.8 °C -4.8 °C 1022.3 hPa WNW 16.1 km/h 22.2 km/h 31% 0.0 mm FEW
19:59 11.8 °C -4.8 °C 1022.3 hPa WNW 14.0 km/h 20.4 km/h 31% 0.0 mm FEW
20:05 11.7 °C -4.9 °C 1022.6 hPa WNW 14.5 km/h 30.6 km/h 31% 0.0 mm FEW
20:09 11.7 °C -4.9 °C 1022.6 hPa NW 14.8 km/h 24.1 km/h 31% 0.0 mm FEW
20:14 11.8 °C -4.8 °C 1022.6 hPa West 14.8 km/h 22.2 km/h 31% 0.0 mm FEW
20:19 11.8 °C -4.8 °C 1022.9 hPa West 15.6 km/h 20.4 km/h 31% 0.0 mm CLR
20:25 11.7 °C -4.5 °C 1022.9 hPa NW 15.6 km/h 14.8 km/h 32% 0.0 mm CLR
20:30 11.6 °C -4.6 °C 1022.9 hPa WNW 11.3 km/h 17.7 km/h 32% 0.0 mm CLR
20:34 11.6 °C -4.6 °C 1023.0 hPa WNW 11.1 km/h 22.2 km/h 32% 0.0 mm CLR
20:39 11.5 °C -4.7 °C 1023.0 hPa West 11.9 km/h 16.7 km/h 32% 0.0 mm CLR
20:44 11.5 °C -4.7 °C 1023.0 hPa NW 11.9 km/h 13.0 km/h 32% 0.0 mm CLR
20:49 11.4 °C -4.7 °C 1023.3 hPa WNW 10.3 km/h 20.4 km/h 32% 0.0 mm CLR
20:55 11.4 °C -4.7 °C 1023.3 hPa WNW 11.3 km/h 30.6 km/h 32% 0.0 mm CLR
20:59 11.4 °C -4.3 °C 1023.3 hPa WNW 16.1 km/h 24.1 km/h 33% 0.0 mm CLR
21:05 11.4 °C -4.3 °C 1023.4 hPa WNW 16.1 km/h 25.7 km/h 33% 0.0 mm CLR
21:09 11.4 °C -4.3 °C 1023.4 hPa WNW 15.6 km/h 29.6 km/h 33% 0.0 mm CLR
21:14 11.4 °C -4.3 °C 1023.4 hPa NW 15.6 km/h 25.9 km/h 33% 0.0 mm CLR
21:19 11.3 °C -4.4 °C 1023.4 hPa WNW 16.1 km/h 25.9 km/h 33% 0.0 mm CLR
21:24 11.2 °C -4.5 °C 1023.4 hPa WNW 16.1 km/h 31.5 km/h 33% 0.0 mm CLR
21:29 11.2 °C -4.5 °C 1023.4 hPa NW 18.3 km/h 24.5 km/h 33% 0.0 mm CLR
21:34 11.1 °C -4.6 °C 1023.6 hPa WNW 18.3 km/h 22.2 km/h 33% 0.0 mm CLR
21:39 11.1 °C -4.2 °C 1023.6 hPa WNW 16.1 km/h 24.1 km/h 34% 0.0 mm CLR
21:44 11.0 °C -4.3 °C 1023.6 hPa North 16.1 km/h 29.6 km/h 34% 0.0 mm CLR
21:49 10.9 °C -4.4 °C 1023.8 hPa WNW 16.4 km/h 27.8 km/h 34% 0.0 mm CLR
21:54 10.9 °C -4.4 °C 1023.8 hPa WNW 16.4 km/h 25.9 km/h 34% 0.0 mm CLR
21:59 10.8 °C -4.4 °C 1023.8 hPa West 16.1 km/h 20.4 km/h 34% 0.0 mm CLR
22:04 10.8 °C -4.4 °C 1024.0 hPa WNW 16.1 km/h 24.1 km/h 34% 0.0 mm CLR
22:09 10.7 °C -4.2 °C 1024.0 hPa WNW 14.0 km/h 20.4 km/h 35% 0.0 mm CLR
22:14 10.6 °C -4.3 °C 1024.0 hPa NW 14.0 km/h 11.1 km/h 35% 0.0 mm CLR
22:19 10.6 °C -4.3 °C 1024.3 hPa NNW 10.3 km/h 13.0 km/h 35% 0.0 mm CLR
22:24 10.5 °C -4.3 °C 1024.3 hPa WNW 10.3 km/h 14.8 km/h 35% 0.0 mm CLR
22:29 10.4 °C -4.4 °C 1024.3 hPa NW 11.1 km/h 16.7 km/h 35% 0.0 mm CLR
22:34 10.3 °C -4.2 °C 1024.3 hPa West 11.1 km/h 15.6 km/h 36% 0.0 mm CLR
22:39 10.1 °C -4.3 °C 1024.3 hPa NW 10.0 km/h 14.8 km/h 36% 0.0 mm CLR
22:45 10.0 °C -4.4 °C 1024.3 hPa WNW 9.7 km/h 14.5 km/h 36% 0.0 mm CLR
22:49 9.9 °C -4.5 °C 1024.3 hPa WNW 10.0 km/h 16.7 km/h 36% 0.0 mm CLR
22:55 9.9 °C -4.5 °C 1024.3 hPa WNW 9.7 km/h 16.1 km/h 36% 0.0 mm CLR
22:59 9.9 °C -4.5 °C 1024.3 hPa NW 11.9 km/h 16.7 km/h 36% 0.0 mm CLR
23:04 10.0 °C -4.4 °C 1024.5 hPa WNW 11.9 km/h 16.7 km/h 36% 0.0 mm CLR
23:10 10.1 °C -4.3 °C 1024.5 hPa NNW 13.0 km/h 16.7 km/h 36% 0.0 mm CLR
23:14 10.1 °C -4.3 °C 1024.5 hPa WSW 13.0 km/h 14.8 km/h 36% 0.0 mm CLR
23:19 10.1 °C -4.3 °C 1024.8 hPa West 9.5 km/h 6.9 km/h 36% 0.0 mm CLR
23:25 9.9 °C -4.1 °C 1024.8 hPa West 9.7 km/h 11.3 km/h 37% 0.0 mm CLR
23:29 9.9 °C -4.1 °C 1024.8 hPa WSW 5.0 km/h 13.0 km/h 37% 0.0 mm CLR
23:34 9.9 °C -4.1 °C 1025.0 hPa WNW 5.0 km/h 13.0 km/h 37% 0.0 mm CLR
23:39 9.9 °C -4.1 °C 1025.0 hPa West 6.9 km/h 16.7 km/h 37% 0.0 mm CLR
23:44 9.9 °C -4.1 °C 1025.0 hPa WNW 6.9 km/h 14.8 km/h 37% 0.0 mm CLR
23:50 9.8 °C -4.2 °C 1025.0 hPa WNW 10.3 km/h 20.4 km/h 37% 0.0 mm CLR
23:55 9.8 °C -4.2 °C 1025.0 hPa WNW 11.3 km/h 22.5 km/h 37% 0.0 mm CLR
23:59 9.8 °C -4.2 °C 1025.0 hPa WNW 13.7 km/h 24.1 km/h 37% 0.0 mm CLR
Murcia-Puente Tocinos, España
Compliments of Weather Underground - 2.75 mb

La estación de MeteoMurcia.com, publica sus datos en los siguientes proyectos:

Weather Underground PWS IMURCIAP2 Meteoclimatic www.awekas.at

W3Counter
Web Analytics